Hourly Weather Kispalád

Today, 27 July, Tuesday

Time Temperature Precipitation Wind Pressure Humidity
00:00 +26°C° 0 mm 2 mps 751 mmHg 90%
01:00 +25°C° 0 mm 2 mps 751 mmHg 94%
02:00 +24°C° 0 mm 3 mps 751 mmHg 93%
03:00 +22°C° 0 mm 3 mps 750 mmHg 95%
04:00 +23°C° 0 mm 2 mps 751 mmHg 97%
05:00 +22°C° 0 mm 3 mps 751 mmHg 94%
06:00 +22°C° 0 mm 3 mps 751 mmHg 95%
07:00 +23°C° 0 mm 4 mps 751 mmHg 87%
08:00 +27°C° 0 mm 5 mps 751 mmHg 78%
09:00 +29°C° 0 mm 5 mps 751 mmHg 73%
10:00 +30°C° 0 mm 4 mps 751 mmHg 68%
11:00 +32°C° 0 mm 4 mps 751 mmHg 69%
12:00 +33°C° 0 mm 5 mps 751 mmHg 68%
13:00 +35°C° 0 mm 4 mps 751 mmHg 61%
14:00 +36°C° 0 mm 5 mps 750 mmHg 55%
15:00 +36°C° 0 mm 6 mps 750 mmHg 49%
16:00 +36°C° 0 mm 6 mps 750 mmHg 52%
17:00 +35°C° 0 mm 5 mps 750 mmHg 55%
18:00 +34°C° 0 mm 5 mps 750 mmHg 59%
19:00 +33°C° 0 mm 4 mps 750 mmHg 63%
20:00 +30°C° 0 mm 2 mps 750 mmHg 73%
21:00 +29°C° 0 mm 2 mps 750 mmHg 83%
22:00 +28°C° 0 mm 2 mps 750 mmHg 88%
23:00 +27°C° 0 mm 1 mps 751 mmHg 93%

Tomorrow, 28 July, Wednesday

Time Temperature Precipitation Wind Pressure Humidity
00:00 +26°C° 0 mm 2 mps 751 mmHg 97%
01:00 +26°C° 0 mm 1 mps 750 mmHg 98%
02:00 +25°C° 0 mm 1 mps 751 mmHg 98%
03:00 +24°C° 0 mm 1 mps 750 mmHg 99%
04:00 +24°C° 0 mm 1 mps 750 mmHg 98%
05:00 +24°C° 0 mm 1 mps 750 mmHg 97%
06:00 +24°C° 0 mm 2 mps 750 mmHg 97%
07:00 +25°C° 0 mm 1 mps 751 mmHg 95%
08:00 +26°C° 0 mm 2 mps 750 mmHg 90%
09:00 +28°C° 0 mm 2 mps 750 mmHg 87%
10:00 +29°C° 0 mm 2 mps 751 mmHg 85%
11:00 +30°C° 0 mm 2 mps 750 mmHg 83%
12:00 +31°C° 0 mm 2 mps 750 mmHg 79%
13:00 +33°C° 0 mm 3 mps 750 mmHg 79%
14:00 +33°C° 0 mm 5 mps 749 mmHg 75%
15:00 +33°C° 0 mm 6 mps 748 mmHg 77%
16:00 +32°C° 0 mm 6 mps 748 mmHg 80%
17:00 +32°C° 0 mm 5 mps 748 mmHg 80%
18:00 +32°C° 0 mm 5 mps 747 mmHg 81%
19:00 +30°C° 0 mm 4 mps 747 mmHg 84%
20:00 +29°C° 0 mm 4 mps 747 mmHg 90%
21:00 +28°C° 0 mm 3 mps 748 mmHg 94%
22:00 +28°C° 0 mm 2 mps 748 mmHg 95%
23:00 +27°C° 0 mm 1 mps 748 mmHg 96%

Day after tomorrow, 29 July, Thursday

Time Temperature Precipitation Wind Pressure Humidity
00:00 +26°C° 0 mm 2 mps 748 mmHg 98%
01:00 +26°C° 0 mm 2 mps 748 mmHg 98%
02:00 +26°C° 0 mm 2 mps 748 mmHg 98%
03:00 +25°C° 0 mm 2 mps 747 mmHg 98%
04:00 +24°C° 0 mm 2 mps 748 mmHg 98%
05:00 +24°C° 0 mm 3 mps 748 mmHg 98%
06:00 +22°C° 0 mm 3 mps 748 mmHg 96%
07:00 +24°C° 0 mm 3 mps 749 mmHg 95%
08:00 +25°C° 0 mm 4 mps 749 mmHg 92%
09:00 +26°C° 0 mm 3 mps 749 mmHg 89%
10:00 +26°C° 0 mm 3 mps 750 mmHg 89%
11:00 +27°C° 0 mm 3 mps 750 mmHg 84%
12:00 +28°C° 0 mm 3 mps 750 mmHg 85%
13:00 +29°C° 0 mm 4 mps 750 mmHg 80%
14:00 +29°C° 0 mm 4 mps 750 mmHg 78%
15:00 +29°C° 0 mm 4 mps 750 mmHg 77%
16:00 +29°C° 0 mm 4 mps 750 mmHg 75%
17:00 +29°C° 0 mm 4 mps 750 mmHg 77%
18:00 +28°C° 0 mm 4 mps 750 mmHg 75%
19:00 +28°C° 0 mm 3 mps 749 mmHg 79%
20:00 +26°C° 0 mm 2 mps 750 mmHg 87%
21:00 +25°C° 0 mm 2 mps 750 mmHg 94%
22:00 +25°C° 0 mm 1 mps 750 mmHg 95%
23:00 +24°C° 0 mm 1 mps 750 mmHg 96%

30 July, Friday

Time Temperature Precipitation Wind Pressure Humidity
00:00 +24°C° 0 mm 1 mps 750 mmHg 98%
01:00 +21°C° 0 mm 0 mps 750 mmHg 100%
02:00 +21°C° 0 mm 0 mps 750 mmHg 100%
03:00 +20°C° 0 mm 0 mps 750 mmHg 100%
04:00 +22°C° 0 mm 1 mps 750 mmHg 100%
05:00 +21°C° 0 mm 2 mps 750 mmHg 100%
06:00 +21°C° 0 mm 2 mps 750 mmHg 100%
07:00 +20°C° 0 mm 2 mps 750 mmHg 99%
08:00 +21°C° 0 mm 3 mps 750 mmHg 100%
09:00 +22°C° 0 mm 3 mps 750 mmHg 96%
10:00 +22°C° 0 mm 3 mps 750 mmHg 97%
11:00 +25°C° 0 mm 3 mps 750 mmHg 94%
12:00 +27°C° 0 mm 3 mps 750 mmHg 92%
13:00 +28°C° 0 mm 4 mps 749 mmHg 90%
14:00 +29°C° 0 mm 5 mps 748 mmHg 79%
15:00 +30°C° 0 mm 5 mps 747 mmHg 74%
16:00 +30°C° 0 mm 4 mps 747 mmHg 74%
17:00 +30°C° 0 mm 4 mps 746 mmHg 76%
18:00 +30°C° 0 mm 3 mps 746 mmHg 81%
19:00 +29°C° 0 mm 4 mps 746 mmHg 86%
20:00 +28°C° 0 mm 3 mps 746 mmHg 91%
21:00 +27°C° 0 mm 3 mps 746 mmHg 93%
22:00 +27°C° 0 mm 3 mps 745 mmHg 94%
23:00 +26°C° 0 mm 3 mps 745 mmHg 94%

31 July, Saturday

Time Temperature Precipitation Wind Pressure Humidity
00:00 +26°C° 0 mm 3 mps 746 mmHg 95%
01:00 +25°C° 0 mm 3 mps 745 mmHg 95%
02:00 +25°C° 0 mm 3 mps 745 mmHg 95%
03:00 +24°C° 0 mm 2 mps 745 mmHg 96%
04:00 +24°C° 0 mm 2 mps 745 mmHg 97%
05:00 +23°C° 0 mm 1 mps 745 mmHg 99%
06:00 +23°C° 0 mm 2 mps 745 mmHg 98%
07:00 +24°C° 0 mm 2 mps 745 mmHg 97%
08:00 +24°C° 0 mm 1 mps 745 mmHg 96%
09:00 +25°C° 0 mm 1 mps 745 mmHg 95%
10:00 +26°C° 0 mm 1 mps 746 mmHg 94%
11:00 +25°C° 0 mm 0 mps 745 mmHg 93%
12:00 +28°C° 0 mm 1 mps 745 mmHg 88%
13:00 +29°C° 0 mm 2 mps 744 mmHg 84%
14:00 +29°C° 0 mm 3 mps 744 mmHg 83%
15:00 +30°C° 0 mm 4 mps 744 mmHg 85%
16:00 +29°C° 0 mm 6 mps 743 mmHg 86%
17:00 +29°C° 0 mm 5 mps 743 mmHg 86%
18:00 +28°C° 0.1 mm 4 mps 744 mmHg 88%
19:00 +27°C° 0.5 mm 3 mps 744 mmHg 92%
20:00 +27°C° 0.2 mm 2 mps 745 mmHg 92%
21:00 +26°C° 0 mm 2 mps 745 mmHg 93%
22:00 +25°C° 0 mm 2 mps 745 mmHg 96%
23:00 +24°C° 0 mm 1 mps 745 mmHg 98%

1 August, Sunday

Time Temperature Precipitation Wind Pressure Humidity
00:00 +24°C° 0 mm 2 mps 745 mmHg 99%
01:00 +24°C° 0 mm 2 mps 745 mmHg 100%
02:00 +23°C° 0 mm 1 mps 745 mmHg 100%
03:00 +23°C° 0 mm 1 mps 745 mmHg 100%
04:00 +23°C° 0 mm 1 mps 745 mmHg 100%
05:00 +23°C° 0 mm 1 mps 746 mmHg 100%
06:00 +23°C° 0 mm 1 mps 746 mmHg 100%
07:00 +23°C° 0 mm 1 mps 746 mmHg 100%
08:00 +23°C° 0 mm 1 mps 746 mmHg 98%
09:00 +24°C° 0 mm 1 mps 747 mmHg 96%
10:00 +24°C° 0 mm 1 mps 747 mmHg 95%
11:00 +25°C° 0 mm 2 mps 746 mmHg 94%
12:00 +26°C° 0 mm 3 mps 746 mmHg 94%
13:00 +27°C° 0 mm 2 mps 746 mmHg 91%
14:00 +28°C° 0.1 mm 2 mps 746 mmHg 85%
15:00 +28°C° 0.1 mm 1 mps 745 mmHg 81%
16:00 +28°C° 0.1 mm 1 mps 745 mmHg 84%
17:00 +28°C° 0 mm 2 mps 745 mmHg 85%
18:00 +27°C° 0 mm 3 mps 744 mmHg 87%
19:00 +27°C° 0 mm 2 mps 744 mmHg 88%
20:00 +26°C° 0 mm 2 mps 744 mmHg 93%
21:00 +26°C° 0 mm 1 mps 744 mmHg 93%
22:00 +24°C° 0 mm 0 mps 743 mmHg 94%
23:00 +25°C° 0 mm 1 mps 743 mmHg 97%
Show more